| time (UTC) | temp C | wind direction | speed KPH | gust KPH | rain 1hr cm | rain 24hr cm | rain mn cm | humidity % | barometer mb |
| 20260505070347 | 17 | 47 | 1.6 | 6.4 | 0.00 | 0.00 | 0.00 | 64 | 1008.1 |
| 20260505065842 | 17 | 177 | 3.2 | 9.7 | 0.00 | 0.00 | 0.00 | 64 | 1008.0 |
| 20260505065339 | 17 | 40 | 3.2 | 4.8 | 0.00 | 0.00 | 0.00 | 66 | 1008.2 |
| 20260505064836 | 17 | 114 | 3.2 | 6.4 | 0.00 | 0.00 | 0.00 | 66 | 1008.1 |
| 20260505064333 | 16 | 171 | 6.4 | 6.4 | 0.00 | 0.00 | 0.00 | 67 | 1008.1 |
| 20260505063832 | 16 | 70 | 3.2 | 4.8 | 0.00 | 0.00 | 0.00 | 69 | 1008.0 |
| 20260505063327 | 16 | 259 | 0.0 | 4.8 | 0.00 | 0.00 | 0.00 | 74 | 1008.0 |
| 20260505062824 | 15 | 18 | 3.2 | 4.8 | 0.00 | 0.00 | 0.00 | 82 | 1008.1 |
| 20260505062321 | 14 | 51 | 3.2 | 3.2 | 0.00 | 0.00 | 0.00 | 82 | 1008.3 |
| 20260505061818 | 15 | 0 | 3.2 | 3.2 | 0.00 | 0.00 | 0.00 | 81 | 1008.1 |
| 20260505061316 | 15 | 64 | 3.2 | 3.2 | 0.00 | 0.00 | 0.00 | 80 | 1007.9 |
| 20260505060813 | 15 | 47 | 0.0 | 3.2 | 0.00 | 0.00 | 0.00 | 79 | 1008.1 |
| 20260505060310 | 15 | 108 | 1.6 | 3.2 | 0.00 | 0.00 | 0.00 | 78 | 1008.2 |
| 20260505055806 | 15 | 27 | 1.6 | 3.2 | 0.00 | 0.00 | 0.00 | 77 | 1008.1 |
| 20260505055303 | 15 | 86 | 1.6 | 4.8 | 0.00 | 0.00 | 0.00 | 79 | 1008.3 |
| 20260505054800 | 15 | 80 | 1.6 | 3.2 | 0.00 | 0.00 | 0.00 | 80 | 1008.2 |
| 20260505054257 | 15 | 104 | 1.6 | 3.2 | 0.00 | 0.00 | 0.00 | 80 | 1008.0 |
| 20260505053755 | 15 | 33 | 0.0 | 3.2 | 0.00 | 0.00 | 0.00 | 80 | 1008.0 |
| 20260505053252 | 15 | 69 | 0.0 | 3.2 | 0.00 | 0.00 | 0.00 | 82 | 1008.1 |
| 20260505052749 | 15 | 33 | 1.6 | 3.2 | 0.00 | 0.00 | 0.00 | 83 | 1008.1 |
| 20260505052246 | 14 | 30 | 0.0 | 3.2 | 0.00 | 0.00 | 0.00 | 85 | 1008.2 |
| 20260505051742 | 14 | 75 | 1.6 | 3.2 | 0.00 | 0.00 | 0.00 | 86 | 1008.3 |
| 20260505051240 | 14 | 47 | 3.2 | 3.2 | 0.00 | 0.00 | 0.00 | 88 | 1008.2 |
| 20260505050738 | 14 | 52 | 1.6 | 1.6 | 0.00 | 0.00 | 0.00 | 89 | 1008.0 |
| 20260505050237 | 14 | 42 | 1.6 | 1.6 | 0.00 | 0.00 | 0.00 | 90 | 1008.1 |
| 20260505041706 | 15 | 9 | 1.6 | 3.2 | 0.00 | 0.00 | 0.00 | 91 | 1008.0 |
| 20260505041203 | 15 | 37 | 3.2 | 3.2 | 0.00 | 0.00 | 0.00 | 91 | 1008.2 |
| 20260505040701 | 15 | 7 | 0.0 | 3.2 | 0.00 | 0.00 | 0.00 | 91 | 1008.3 |
| 20260505040158 | 15 | 43 | 1.6 | 3.2 | 0.00 | 0.00 | 0.00 | 90 | 1008.1 |
| 20260505035654 | 15 | 45 | 3.2 | 3.2 | 0.00 | 0.00 | 0.00 | 90 | 1008.0 |
| 20260505035150 | 15 | 5 | 0.0 | 3.2 | 0.00 | 0.00 | 0.00 | 90 | 1007.9 |
| 20260505034647 | 15 | 334 | 3.2 | 3.2 | 0.00 | 0.00 | 0.00 | 90 | 1007.9 |
| 20260505034144 | 15 | 21 | 3.2 | 3.2 | 0.00 | 0.00 | 0.00 | 89 | 1008.0 |
| 20260505033640 | 15 | 30 | 3.2 | 3.2 | 0.00 | 0.00 | 0.00 | 90 | 1007.8 |
| 20260505033139 | 15 | 351 | 1.6 | 3.2 | 0.00 | 0.00 | 0.00 | 89 | 1008.1 |
| 20260505032636 | 15 | 31 | 0.0 | 3.2 | 0.00 | 0.00 | 0.00 | 89 | 1007.8 |
| 20260505032127 | 15 | 48 | 0.0 | 3.2 | 0.00 | 0.00 | 0.00 | 88 | 1007.9 |
| 20260505031624 | 15 | 37 | 0.0 | 3.2 | 0.00 | 0.00 | 0.00 | 88 | 1007.9 |
| 20260505031120 | 15 | 78 | 1.6 | 3.2 | 0.00 | 0.00 | 0.00 | 87 | 1007.9 |
| 20260505030618 | 16 | 32 | 0.0 | 3.2 | 0.00 | 0.00 | 0.00 | 87 | 1008.0 |
| 20260505030113 | 16 | 73 | 1.6 | 3.2 | 0.00 | 0.00 | 0.00 | 87 | 1008.1 |
| 20260505025609 | 16 | 60 | 3.2 | 3.2 | 0.00 | 0.00 | 0.00 | 86 | 1008.2 |
| 20260505025109 | 16 | 16 | 3.2 | 4.8 | 0.00 | 0.00 | 0.00 | 86 | 1008.0 |
| 20260505024605 | 16 | 9 | 1.6 | 4.8 | 0.00 | 0.00 | 0.00 | 86 | 1008.0 |
| 20260505024103 | 16 | 18 | 1.6 | 3.2 | 0.00 | 0.00 | 0.00 | 85 | 1007.7 |
| 20260505023600 | 16 | 89 | 3.2 | 4.8 | 0.00 | 0.00 | 0.00 | 85 | 1008.0 |
| 20260505023057 | 16 | 125 | 3.2 | 4.8 | 0.00 | 0.00 | 0.00 | 85 | 1008.0 |
| 20260505022554 | 16 | 68 | 1.6 | 4.8 | 0.00 | 0.00 | 0.00 | 84 | 1008.0 |
| 20260505022051 | 16 | 82 | 3.2 | 4.8 | 0.00 | 0.00 | 0.00 | 84 | 1008.0 |
| 20260505021548 | 16 | 1 | 3.2 | 4.8 | 0.00 | 0.00 | 0.00 | 84 | 1007.9 |
| 20260505021045 | 16 | 102 | 3.2 | 4.8 | 0.00 | 0.00 | 0.00 | 83 | 1007.8 |
| 20260505020544 | 16 | 101 | 6.4 | 6.4 | 0.00 | 0.00 | 0.00 | 83 | 1007.8 |
| 20260505020042 | 16 | 80 | 4.8 | 6.4 | 0.00 | 0.00 | 0.00 | 82 | 1007.8 |
| 20260505015539 | 17 | 305 | 3.2 | 4.8 | 0.00 | 0.00 | 0.00 | 81 | 1008.0 |
| 20260505015035 | 17 | 80 | 3.2 | 6.4 | 0.00 | 0.00 | 0.00 | 80 | 1007.7 |
| 20260505014532 | 17 | 67 | 3.2 | 6.4 | 0.00 | 0.00 | 0.00 | 77 | 1007.7 |
| 20260505014030 | 17 | 114 | 3.2 | 6.4 | 0.00 | 0.00 | 0.00 | 77 | 1007.8 |
| 20260505013527 | 17 | 61 | 3.2 | 4.8 | 0.00 | 0.00 | 0.00 | 76 | 1007.7 |
| 20260505013024 | 17 | 64 | 3.2 | 3.2 | 0.00 | 0.00 | 0.00 | 77 | 1007.7 |
| 20260505012522 | 17 | 93 | 4.8 | 4.8 | 0.00 | 0.00 | 0.00 | 77 | 1007.8 |
| 20260505012019 | 17 | 67 | 1.6 | 3.2 | 0.00 | 0.00 | 0.00 | 76 | 1007.6 |
| 20260505011514 | 17 | 20 | 3.2 | 3.2 | 0.00 | 0.00 | 0.00 | 76 | 1007.7 |
| 20260505011011 | 17 | 54 | 3.2 | 3.2 | 0.00 | 0.00 | 0.00 | 75 | 1007.6 |
| 20260505010507 | 17 | 57 | 3.2 | 3.2 | 0.00 | 0.00 | 0.00 | 76 | 1007.3 |
| 20260505010004 | 17 | 39 | 0.0 | 1.6 | 0.00 | 0.00 | 0.00 | 75 | 1007.3 |
| 20260505005500 | 17 | 353 | 0.0 | 3.2 | 0.00 | 0.00 | 0.00 | 75 | 1007.3 |
| 20260505004958 | 17 | 23 | 0.0 | 3.2 | 0.00 | 0.00 | 0.00 | 75 | 1007.4 |
| 20260505004454 | 17 | 168 | 0.0 | 4.8 | 0.00 | 0.00 | 0.00 | 74 | 1007.4 |
| 20260505003951 | 17 | 56 | 1.6 | 4.8 | 0.00 | 0.00 | 0.00 | 74 | 1007.7 |
| 20260505003448 | 17 | 88 | 1.6 | 3.2 | 0.00 | 0.00 | 0.00 | 75 | 1007.3 |
| 20260505002944 | 17 | 58 | 1.6 | 4.8 | 0.00 | 0.00 | 0.00 | 75 | 1007.3 |
| 20260505002441 | 17 | 56 | 3.2 | 3.2 | 0.00 | 0.00 | 0.00 | 76 | 1007.5 |
| 20260505001939 | 17 | 66 | 3.2 | 4.8 | 0.00 | 0.00 | 0.00 | 76 | 1007.5 |
| 20260505001436 | 17 | 103 | 3.2 | 3.2 | 0.00 | 0.00 | 0.00 | 75 | 1007.4 |
| 20260505000933 | 17 | 56 | 3.2 | 3.2 | 0.00 | 0.00 | 0.00 | 75 | 1007.3 |
| 20260505000432 | 17 | 100 | 3.2 | 4.8 | 0.00 | 0.00 | 0.00 | 74 | 1007.2 |
| 20260504235928 | 17 | 92 | 1.6 | 3.2 | 0.00 | 0.00 | 0.00 | 74 | 1007.3 |
| 20260504235425 | 18 | 76 | 3.2 | 3.2 | 0.00 | 0.00 | 0.00 | 74 | 1007.4 |
| 20260504234921 | 18 | 105 | 3.2 | 3.2 | 0.00 | 0.00 | 0.00 | 74 | 1007.3 |
| 20260504234419 | 18 | 101 | 3.2 | 3.2 | 0.00 | 0.00 | 0.00 | 74 | 1007.2 |
| 20260504233915 | 18 | 43 | 0.0 | 3.2 | 0.00 | 0.00 | 0.00 | 74 | 1007.3 |
| 20260504233411 | 18 | 89 | 3.2 | 4.8 | 0.00 | 0.00 | 0.00 | 73 | 1007.2 |
| 20260504232908 | 18 | 57 | 3.2 | 4.8 | 0.00 | 0.00 | 0.00 | 72 | 1006.9 |
| 20260504232405 | 18 | 75 | 3.2 | 6.4 | 0.00 | 0.00 | 0.00 | 72 | 1007.0 |
| 20260504231902 | 18 | 77 | 3.2 | 4.8 | 0.00 | 0.00 | 0.00 | 71 | 1007.2 |
| 20260504231358 | 19 | 154 | 3.2 | 4.8 | 0.00 | 0.00 | 0.00 | 70 | 1007.2 |
| 20260504230855 | 18 | 111 | 6.4 | 6.4 | 0.00 | 0.00 | 0.00 | 71 | 1007.2 |
| 20260504230352 | 18 | 126 | 3.2 | 6.4 | 0.00 | 0.00 | 0.00 | 71 | 1007.2 |
| 20260504225851 | 18 | 129 | 1.6 | 6.4 | 0.00 | 0.00 | 0.00 | 70 | 1007.1 |
| 20260504225347 | 18 | 181 | 6.4 | 6.4 | 0.00 | 0.00 | 0.00 | 70 | 1007.3 |
| 20260504224845 | 18 | 103 | 6.4 | 9.7 | 0.00 | 0.00 | 0.00 | 69 | 1007.1 |
| 20260504224341 | 18 | 115 | 1.6 | 9.7 | 0.00 | 0.00 | 0.00 | 69 | 1007.4 |
| 20260504223838 | 19 | 105 | 3.2 | 6.4 | 0.00 | 0.00 | 0.00 | 68 | 1007.3 |
| 20260504223333 | 19 | 204 | 6.4 | 12.9 | 0.00 | 0.00 | 0.00 | 66 | 1007.1 |
| 20260504222830 | 19 | 34 | 3.2 | 12.9 | 0.00 | 0.00 | 0.00 | 65 | 1007.0 |
| 20260504222327 | 18 | 58 | 6.4 | 16.1 | 0.00 | 0.00 | 0.00 | 65 | 1007.2 |
| 20260504221826 | 19 | 114 | 9.7 | 12.9 | 0.00 | 0.00 | 0.00 | 65 | 1007.3 |
| 20260504221322 | 19 | 122 | 3.2 | 14.5 | 0.00 | 0.00 | 0.00 | 64 | 1007.3 |
| 20260504220819 | 19 | 166 | 3.2 | 9.7 | 0.00 | 0.00 | 0.00 | 62 | 1007.5 |
| 20260504220316 | 19 | 161 | 9.7 | 22.5 | 0.00 | 0.00 | 0.00 | 59 | 1007.2 |
| 20260504215813 | 20 | 127 | 3.2 | 20.9 | 0.00 | 0.00 | 0.00 | 55 | 1007.2 |
| 20260504215309 | 20 | 147 | 6.4 | 11.3 | 0.00 | 0.00 | 0.00 | 54 | 1007.4 |
| 20260504214805 | 20 | 115 | 12.9 | 19.3 | 0.00 | 0.00 | 0.00 | 53 | 1007.3 |
| 20260504214303 | 20 | 147 | 3.2 | 11.3 | 0.00 | 0.00 | 0.00 | 54 | 1007.1 |
| 20260504213759 | 20 | 355 | 3.2 | 6.4 | 0.00 | 0.00 | 0.00 | 55 | 1007.3 |
| 20260504213255 | 20 | 132 | 11.3 | 17.7 | 0.00 | 0.00 | 0.00 | 55 | 1007.2 |
| 20260504212753 | 20 | 122 | 3.2 | 11.3 | 0.00 | 0.00 | 0.00 | 55 | 1007.4 |
| 20260504212249 | 20 | 103 | 6.4 | 8.0 | 0.00 | 0.00 | 0.00 | 55 | 1007.2 |
| 20260504211746 | 20 | 9 | 0.0 | 8.0 | 0.00 | 0.00 | 0.00 | 54 | 1007.4 |
| 20260504211242 | 20 | 114 | 9.7 | 14.5 | 0.00 | 0.00 | 0.00 | 55 | 1007.3 |
| 20260504210740 | 20 | 107 | 11.3 | 12.9 | 0.00 | 0.00 | 0.00 | 55 | 1007.3 |
| 20260504210237 | 20 | 83 | 6.4 | 17.7 | 0.00 | 0.00 | 0.00 | 56 | 1007.4 |
| 20260504205734 | 20 | 132 | 4.8 | 9.7 | 0.00 | 0.00 | 0.00 | 55 | 1007.4 |
| 20260504205232 | 20 | 111 | 16.1 | 16.1 | 0.00 | 0.00 | 0.00 | 56 | 1007.4 |
| 20260504204729 | 20 | 119 | 6.4 | 12.9 | 0.00 | 0.00 | 0.00 | 56 | 1007.4 |
| 20260504204227 | 20 | 112 | 4.8 | 9.7 | 0.00 | 0.00 | 0.00 | 55 | 1007.3 |
| 20260504203727 | 20 | 77 | 1.6 | 16.1 | 0.00 | 0.00 | 0.00 | 54 | 1007.6 |
| 20260504203223 | 20 | 122 | 3.2 | 14.5 | 0.00 | 0.00 | 0.00 | 55 | 1007.6 |
| 20260504202718 | 20 | 63 | 4.8 | 17.7 | 0.00 | 0.00 | 0.00 | 54 | 1007.6 |
| 20260504202215 | 20 | 239 | 11.3 | 16.1 | 0.00 | 0.00 | 0.00 | 52 | 1007.7 |
| 20260504201712 | 20 | 112 | 8.0 | 9.7 | 0.00 | 0.00 | 0.00 | 51 | 1007.7 |
| 20260504201210 | 21 | 113 | 3.2 | 14.5 | 0.00 | 0.00 | 0.00 | 51 | 1007.8 |
| 20260504200707 | 21 | 115 | 9.7 | 17.7 | 0.00 | 0.00 | 0.00 | 51 | 1007.8 |
| 20260504200203 | 21 | 145 | 4.8 | 17.7 | 0.00 | 0.00 | 0.00 | 49 | 1008.0 |
| 20260504195659 | 21 | 98 | 8.0 | 9.7 | 0.00 | 0.00 | 0.00 | 51 | 1008.1 |
| 20260504195155 | 21 | 126 | 8.0 | 9.7 | 0.00 | 0.00 | 0.00 | 49 | 1008.1 |
| 20260504194653 | 21 | 104 | 11.3 | 12.9 | 0.00 | 0.00 | 0.00 | 48 | 1007.9 |
| 20260504194148 | 21 | 150 | 3.2 | 11.3 | 0.00 | 0.00 | 0.00 | 49 | 1007.9 |
| 20260504193645 | 21 | 180 | 1.6 | 9.7 | 0.00 | 0.00 | 0.00 | 50 | 1008.2 |
| 20260504193143 | 22 | 114 | 9.7 | 12.9 | 0.00 | 0.00 | 0.00 | 47 | 1008.3 |
| 20260504192641 | 22 | 115 | 14.5 | 22.5 | 0.00 | 0.00 | 0.00 | 48 | 1008.3 |
| 20260504192139 | 22 | 142 | 3.2 | 8.0 | 0.00 | 0.00 | 0.00 | 47 | 1008.3 |
| 20260504191637 | 22 | 111 | 3.2 | 14.5 | 0.00 | 0.00 | 0.00 | 46 | 1008.3 |
| 20260504191133 | 22 | 134 | 8.0 | 12.9 | 0.00 | 0.00 | 0.00 | 45 | 1008.7 |
| 20260504190629 | 22 | 152 | 4.8 | 12.9 | 0.00 | 0.00 | 0.00 | 45 | 1008.6 |
| 20260504190126 | 22 | 143 | 4.8 | 12.9 | 0.00 | 0.00 | 0.00 | 46 | 1008.8 |
| 20260504185622 | 22 | 117 | 8.0 | 9.7 | 0.00 | 0.00 | 0.00 | 44 | 1008.5 |
| 20260504185119 | 22 | 125 | 9.7 | 16.1 | 0.00 | 0.00 | 0.00 | 44 | 1008.7 |
| 20260504184614 | 22 | 106 | 3.2 | 8.0 | 0.00 | 0.00 | 0.00 | 45 | 1008.9 |
| 20260504184110 | 22 | 87 | 4.8 | 8.0 | 0.00 | 0.00 | 0.00 | 45 | 1009.0 |
| 20260504183607 | 22 | 110 | 9.7 | 11.3 | 0.00 | 0.00 | 0.00 | 46 | 1009.0 |
| 20260504183105 | 21 | 110 | 9.7 | 9.7 | 0.00 | 0.00 | 0.00 | 46 | 1009.0 |
| 20260504182602 | 21 | 116 | 6.4 | 14.5 | 0.00 | 0.00 | 0.00 | 45 | 1009.1 |
| 20260504182059 | 21 | 122 | 8.0 | 17.7 | 0.00 | 0.00 | 0.00 | 46 | 1009.2 |
| 20260504181556 | 21 | 113 | 9.7 | 9.7 | 0.00 | 0.00 | 0.00 | 43 | 1009.4 |
| 20260504181054 | 21 | 137 | 6.4 | 12.9 | 0.00 | 0.00 | 0.00 | 44 | 1009.2 |
| 20260504180553 | 21 | 115 | 8.0 | 12.9 | 0.00 | 0.00 | 0.00 | 44 | 1009.4 |
| 20260504180052 | 20 | 109 | 14.5 | 16.1 | 0.00 | 0.00 | 0.00 | 44 | 1009.4 |
| 20260504175548 | 21 | 111 | 8.0 | 11.3 | 0.00 | 0.00 | 0.00 | 45 | 1009.4 |
| 20260504175045 | 21 | 104 | 8.0 | 17.7 | 0.00 | 0.00 | 0.00 | 44 | 1009.7 |
| 20260504174543 | 21 | 144 | 4.8 | 14.5 | 0.00 | 0.00 | 0.00 | 44 | 1009.7 |
| 20260504174040 | 21 | 122 | 4.8 | 8.0 | 0.00 | 0.00 | 0.00 | 41 | 1009.6 |
| 20260504173536 | 21 | 188 | 6.4 | 9.7 | 0.00 | 0.00 | 0.00 | 40 | 1009.7 |
| 20260504173034 | 21 | 119 | 3.2 | 8.0 | 0.00 | 0.00 | 0.00 | 45 | 1009.9 |
| 20260504172530 | 21 | 113 | 6.4 | 9.7 | 0.00 | 0.00 | 0.00 | 45 | 1009.9 |
| 20260504172027 | 21 | 130 | 3.2 | 9.7 | 0.00 | 0.00 | 0.00 | 43 | 1009.9 |
| 20260504171524 | 21 | 83 | 3.2 | 9.7 | 0.00 | 0.00 | 0.00 | 47 | 1010.0 |
| 20260504171021 | 20 | 118 | 8.0 | 9.7 | 0.00 | 0.00 | 0.00 | 47 | 1009.9 |
| 20260504170516 | 20 | 108 | 9.7 | 12.9 | 0.00 | 0.00 | 0.00 | 45 | 1009.9 |
| 20260504160437 | 20 | 122 | 3.2 | 14.5 | 0.00 | 0.00 | 0.00 | 47 | 1010.7 |
| 20260504150900 | 19 | 174 | 3.2 | 9.7 | 0.00 | 0.00 | 0.00 | 40 | 1010.9 |
| 20260504150357 | 19 | 135 | 0.0 | 4.8 | 0.00 | 0.00 | 0.00 | 42 | 1011.1 |
| 20260504141327 | 17 | 324 | 3.2 | 6.4 | 0.00 | 0.00 | 0.00 | 53 | 1011.7 |
| 20260504140823 | 17 | 131 | 0.0 | 6.4 | 0.00 | 0.00 | 0.00 | 50 | 1011.6 |
| 20260504140319 | 16 | 0 | 3.2 | 4.8 | 0.00 | 0.00 | 0.00 | 50 | 1011.4 |
| 20260504130748 | 15 | 66 | 4.8 | 4.8 | 0.00 | 0.00 | 0.00 | 55 | 1011.8 |
| 20260504130244 | 15 | 290 | 4.8 | 16.1 | 0.00 | 0.00 | 0.00 | 56 | 1011.8 |
| 20260504120208 | 13 | 82 | 4.8 | 4.8 | 0.00 | 0.00 | 0.00 | 60 | 1012.0 |
| 20260504110635 | 11 | 28 | 0.0 | 6.4 | 0.00 | 0.00 | 0.00 | 63 | 1012.5 |
| 20260504110131 | 11 | 269 | 0.0 | 4.8 | 0.00 | 0.00 | 0.00 | 63 | 1012.4 |
| 20260504100551 | 11 | 141 | 3.2 | 9.7 | 0.00 | 0.00 | 0.00 | 68 | 1012.5 |
| 20260504081945 | 12 | 11 | 0.0 | 4.8 | 0.00 | 0.00 | 0.00 | 64 | 1012.6 |
| 20260504081442 | 12 | 20 | 1.6 | 4.8 | 0.00 | 0.00 | 0.00 | 64 | 1012.5 |
| 20260504080938 | 12 | 94 | 1.6 | 3.2 | 0.00 | 0.00 | 0.00 | 63 | 1012.5 |
| 20260504080435 | 12 | 345 | 1.6 | 3.2 | 0.00 | 0.00 | 0.00 | 64 | 1012.7 |